Regional Weather Roundup
Issued by NWS Newport/Morehead, NC

Current Version | Previous Version | Graphics & Text | Print | Product List | Glossary Off
Versions: 1 2 3 4 5 6 7 8 9 10 11 12 13 14 15 16 17 18 19 20 21 22 23 24 25 26 27 28 29 30 31 32 33 34 35 36 37 38 39 40 41 42 43 44 45 46 47 48 49 50

000
ASUS42 KMHX 230013
RWRMHX
WEATHER ROUNDUP FOR EASTERN NORTH CAROLINA
NATIONAL WEATHER SERVICE NEWPORT/MOREHEAD CITY NC
800 PM EDT FRI SEP 22 2017

NOTE: "FAIR" INDICATES FEW OR NO CLOUDS BELOW 12,000 FEET
WITH NO SIGNIFICANT WEATHER AND/OR OBSTRUCTIONS TO VISIBILITY

NCZ015>017-031-032-045>047-102-103-230100-
NORTH COAST

CITY           SKY/WX    TMP DP  RH WIND       PRES   REMARKS
EDENTON        PTCLDY    77  72  84 CALM      30.01R
ELIZABETH CITY CLEAR     73  71  93 SE3       30.00R
KITTY HAWK     CLEAR     70  67  91 CALM      29.99S
MANTEO         PTCLDY    73  67  79 CALM      30.00S

$$

NCZ045>047-081-094-103-104-230100-
CENTRAL COAST

CITY           SKY/WX    TMP DP  RH WIND       PRES   REMARKS
FRISCO         CLEAR     75  71  87 SW3       30.00R

$$

NCZ095-097-098-100-101-230100-
SOUTHERN COAST

CITY           SKY/WX    TMP DP  RH WIND       PRES   REMARKS
BEAUFORT       CLEAR     76  69  79 S5        30.00S
CEDAR ISLAND   NOT AVBL
JACKSONVILLE   CLEAR     76  72  87 CALM      29.99S
PINEY ISLAND     N/A    N/A N/A N/A S5        29.99S
WILMINGTON     CLOUDY    76  71  85 CALM      30.00S


$$

NCZ011>013-027>030-043-044-078>080-089-090>093-098-230100-
COASTAL PLAIN

CITY           SKY/WX    TMP DP  RH WIND       PRES   REMARKS
AHOSKIE        CLEAR     71  70  95 CALM      30.01R
CLINTON        CLEAR     75  67  76 CALM      30.00S
ELIZABETHTOWN  NOT AVBL
GOLDSBORO      CLEAR     75  74  97 CALM      29.98S
GREENVILLE     CLOUDY    75  72  88 CALM      30.01S
HAVELOCK       CLEAR     76  71  85 S5        30.00S
KENANSVILLE    CLEAR     72  68  88 CALM      30.00S
KINSTON        CLEAR     73  68  83 CALM      30.00S
NEW BERN       CLEAR     76  72  87 S3        30.00S
RICHLANDS      CLEAR     74  71  91 CALM      30.01R
ROCKY MOUNT    CLOUDY    74  69  85 CALM      30.00R
WASHINGTON     CLOUDY    77  67  71 CALM      29.99S
WHITEVILLE     MOCLDY    78  72  81 CALM      30.00R

$$

AMZ130-135-150-152-154-156-158-170-250-252-270-ANZ085-086-088-633-658-670-230100-
MARINE OBSERVATIONS

STATION/POSITION TIME  TEMP    WIND        PRES    WAVE   SWELL
                       AIR SEA DIR/SP/G            HT/PER HT/PER
                 (UTC) (F)     (DEG/KT/KT) (MB)    (FT/S) (FT/S)
CHESAPEAKE LIGHT NOT AVBL
64 E VA BEACH    2350   70 71  270/  2/  4 1016.0    9/11   8/11
DUCK             2342   75 77  100/  3/  3 1015.4
2 E DUCK         NOT AVBL
OREGON INLET     2342   75 78   80/  1/  2 1015.6
13E OREGON INLT  2348      75                N/A     7/13   7/13
HATTERAS CG      2342   78 79  190/  2/  3 1015.6
DIAMOND BUOY     2350   78 78  260/  4/  6 1015.7    6/12   7/12
CAPE LOOKOUT     0000   78     190/  4/  4 1015.7
BEAUFORT LAB     2342   79 78  200/  5/  7 1015.2
30 SE NEW RVR IN 2308   80     190/  4/  6 1015.4
30 SE NEW RVR IN NOT AVBL
27 SE WRIGHTSVLE 2308   80 81  110/  4/  6 1015.5
5 SE WRIGHTSVLE  2308   79 79  180/  6/  8 1015.3
225 S CAPE HAT   2350   79 80   60/ 12/ 14 1014.7    8/11   8/11
41 SE CHARLESTON 2350   80 82   50/  8/ 10 1014.5    5/13   5/13

$$



USA.gov is the U.S. government's official web portal to all federal, state and local government web resources and services.